{"data":{"norad_id":67064,"intl_designator":"2025-295F","name":"HULIANWANG DIGUI-124","alt_names":[],"object_type":"PAYLOAD","status":"ACTIVE","operator":null,"country":"PRC","launch_date":"2025-12-11","launch_site_code":"WSC","launch_vehicle":null,"mission":null,"orbit_class":"UNKNOWN","rcs_meters":null,"size_class":null,"mass_kg":null,"dimensions":null,"purposes":[],"wikipedia_slug":null,"has_3d_model":false,"image_url":null,"decayed_at":null,"tle_current":{"epoch":"2026-09-20T14:13:19.581600Z","epoch_age_seconds":100654,"freshness":"FRESH","line1":"1 67064U 25295F   26263.59258775 -.00000105  00000+0  41620-4 0  9996","line2":"2 67064  50.0006  43.1404 0000759  82.9817 277.1141 13.29326384 38193","mean_motion":13.29326384,"eccentricity":7.59e-5,"inclination_deg":50.0006,"raan_deg":43.1404,"arg_perigee_deg":82.9817,"mean_anomaly_deg":277.1141,"bstar":4.162e-5,"rev_number":3819,"period_min":108.32554121637,"perigee_km":1148.733789371,"apogee_km":1149.8764550852,"semimajor_km":7527.4421222281,"source":"CELESTRAK","updated_at":"2026-09-21T09:00:16.409904Z"}}}